SCP
0 0 0 0 0 0 0 0 0 0 0 0 0 0 0 0 0 0 0 0 0 0 0 0 0 0 0 0 0 0 0 0 0 0 0 0 0 0 0 0 0 0 1
0 0 0 0 0 0 0 0 0 0 0 0 0 0 0 0 0 0 0 0 0 0 0 0 0 0 0 0 0 0 0 0 0 0 0 0 0 0 0 0 0 1 1
0 0 0 0 0 0 0 0 0 0 0 0 0 0 0 0 0 0 0 0 0 0 0 0 0 0 0 0 0 0 0 0 0 0 0 0 0 0 0 0 0 1 1
0 0 0 0 0 0 0 0 0 0 0 0 0 0 0 0 0 0 0 0 0 0 0 0 0 0 0 0 0 0 0 0 0 0 0 0 0 0 0 0 0 1 1
0 0 0 0 0 0 0 0 0 0 0 0 0 0 0 0 0 0 0 0 0 0 0 0 0 0 0 0 0 0 0 0 0 0 0 0 0 0 0 0 0 0 1
0 0 0 0 0 0 0 0 0 0 0 0 0 0 0 0 0 0 0 0 0 0 0 0 0 0 0 0 0 0 0 0 0 0 0 0 0 0 0 0 0 0 0
0 0 0 0 0 0 0 0 0 0 0 0 0 0 0 0 0 0 0 0 0 0 0 0 0 0 0 0 0 0 0 0 0 0 0 0 0 0 0 0 0 0 0
0 0 0 0 0 0 0 0 0 0 0 0 0 0 0 0 0 0 0 0 0 0 0 0 0 0 0 0 0 0 0 0 0 0 0 0 0 0 0 0 0 0 0
0 0 0 0 0 0 0 0 0 0 0 0 0 0 0 0 0 0 0 0 0 0 0 0 0 0 0 0 0 0 0 0 0 0 0 0 0 0 0 0 0 0 0
0 0 0 0 0 0 0 0 0 0 0 0 0 0 0 0 0 0 0 0 0 0 0 0 0 0 0 0 0 0 0 0 0 0 0 0 0 0 0 0 0 0 0
0 0 0 0 0 0 0 0 0 0 0 0 0 0 0 0 0 0 0 0 0 0 0 0 0 0 0 0 0 0 0 0 0 0 0 0 0 0 0 0 0 0 0
0 0 0 0 0 0 0 0 0 0 0 0 0 0 0 0 0 0 0 0 0 0 0 0 0 0 0 0 0 0 0 0 0 0 0 0 0 0 0 0 0 0 0
0 0 0 0 0 0 0 0 0 0 0 0 0 0 0 0 0 0 0 0 0 0 0 0 0 0 0 0 0 0 0 0 0 0 0 0 0 0 0 0 0 0 0
0 0 0 0 0 0 0 0 0 0 0 0 0 0 0 0 0 0 0 0 0 0 0 0 0 0 0 0 0 0 0 0 0 0 0 0 0 0 0 0 0 0 0
0 0 0 0 0 0 0 0 0 0 0 0 0 0 0 0 0 0 0 0 0 0 0 0 0 0 0 0 0 0 0 0 0 0 0 0 0 0 0 0 0 0 0
0 0 0 0 0 0 0 0 0 0 0 0 0 0 0 0 0 0 0 0 0 0 0 0 0 0 0 0 0 0 0 0 0 0 0 0 0 0 0 0 0 0 0
0 0 0 0 0 0 0 0 0 0 0 0 0 0 0 0 0 0 0 0 0 0 0 0 0 0 0 0 0 0 0 0 0 0 0 0 0 0 0 0 0 0 0
0 0 0 0 0 0 0 0 0 0 0 0 0 0 0 0 0 0 0 0 0 0 0 0 0 0 0 0 0 0 0 0 0 0 0 0 0 0 0 0 0 0 0
0 0 0 0 0 0 0 0 0 0 0 0 0 0 0 0 0 0 0 0 0 0 0 0 0 0 0 0 0 0 0 0 0 0 0 0 0 0 0 0 0 0 0
0 0 0 0 0 0 0 0 0 0 0 0 0 0 0 0 0 0 0 0 0 0 0 0 0 0 0 0 0 0 0 0 0 0 0 0 0 0 0 0 0 0 0
0 0 0 0 0 0 0 0 0 0 0 0 0 0 0 0 0 0 0 0 0 0 0 0 0 0 0 0 0 0 0 0 0 0 0 0 0 0 0 0 0 0 0
0 0 0 0 0 0 0 0 0 0 0 0 0 0 0 0 0 0 0 0 0 0 0 0 0 0 0 0 0 0 0 0 0 0 0 0 0 0 0 0 0 0 0
0 0 0 0 0 0 0 0 0 0 0 0 0 0 0 0 0 0 0 0 0 0 0 0 0 0 0 0 0 0 0 0 0 0 0 0 0 0 0 0 0 0 0
0 0 0 0 0 0 0 0 0 0 0 0 0 0 0 0 0 0 0 0 0 0 0 0 0 0 0 0 0 0 0 0 0 0 0 0 0 0 0 0 0 0 0
0 0 0 0 0 0 0 0 0 0 0 0 0 0 0 0 0 0 0 0 0 0 0 0 0 0 0 0 0 0 0 0 0 0 0 0 0 0 0 0 0 0 0
0 0 0 0 0 0 0 0 0 0 0 0 0 0 0 0 0 0 0 0 0 0 0 0 0 0 0 0 0 0 0 0 0 0 0 0 0 0 0 0 0 0 0
Wind_Speed
15 15 16 17 19 19 20 21 21 19 16 13 13 14 13 11 11 11 16 17 17 17 15 12 13 13 13 15 16 14 15 12 11 12 12 13 15 15 12 12 12 13 13
16 15 15 16 18 18 18 19 19 19 18 14 13 13 14 12 11 12 13 16 18 17 13 14 13 14 13 15 15 15 12 12 11 9 10 10 11 13 12 12 12 13 11
16 16 15 17 18 17 18 17 19 19 18 18 13 13 12 12 12 13 12 15 18 17 16 15 14 14 13 12 15 14 15 13 13 10 8 7 8 9 9 12 11 12 11
15 16 16 17 18 17 16 17 18 18 18 17 15 17 14 14 16 14 13 17 17 17 17 16 16 14 13 14 14 13 12 13 12 12 10 10 9 8 8 7 8 10 10
15 16 15 15 15 16 15 16 17 17 18 18 17 16 15 14 13 14 17 17 15 16 18 17 16 16 13 15 15 15 14 11 12 11 12 13 11 12 8 10 9 7 7
15 14 13 14 14 15 15 15 17 17 18 18 18 18 18 18 18 18 17 15 14 14 18 19 17 17 15 16 16 15 16 13 14 12 11 11 10 9 9 10 12 12 9
14 13 14 14 15 16 16 15 18 18 18 18 18 18 18 19 18 18 17 17 14 14 18 18 17 16 17 17 17 16 16 15 15 14 12 12 12 12 12 11 11 13 12
13 13 14 13 15 16 16 16 17 17 17 18 18 17 18 14 13 17 16 16 14 15 19 19 18 18 19 18 17 14 16 14 14 15 15 12 12 11 12 11 10 11 11
12 13 13 13 14 15 16 16 17 17 17 17 18 17 17 16 17 18 16 14 15 16 19 19 18 18 18 18 18 13 16 15 15 14 15 14 12 11 12 12 10 10 10
11 13 12 13 14 14 15 16 16 17 16 16 15 14 16 16 17 16 17 18 19 19 20 20 19 18 17 17 16 15 15 16 15 13 14 14 11 11 10 11 11 10 10
12 14 12 13 13 14 15 15 16 16 16 16 16 16 15 16 16 15 17 18 18 19 19 20 19 19 18 17 16 16 17 16 15 15 13 12 11 8 8 8 9 10 9
12 13 13 13 13 14 14 15 15 15 15 15 15 15 15 16 16 17 18 18 19 18 18 19 19 19 19 18 18 17 16 15 15 15 14 10 7 7 6 7 9 9 9
13 13 12 13 13 14 14 14 15 15 15 15 15 15 16 16 17 17 18 18 18 19 18 18 18 18 18 19 19 16 16 14 15 15 14 12 10 9 7 8 8 8 8
13 13 13 13 13 13 14 14 15 14 15 15 15 15 16 17 17 17 18 18 18 18 18 18 18 18 18 18 20 13 13 14 14 14 14 13 12 11 8 6 7 7 7
14 13 13 13 14 14 14 14 14 14 15 15 15 15 16 16 16 17 17 18 18 18 18 18 18 18 16 17 22 9 9 12 14 14 13 13 17 20 11 4 5 5 3
13 13 14 14 15 15 15 14 14 14 14 14 14 15 15 16 16 16 16 17 17 17 17 17 18 18 15 27 31 17 10 10 12 13 13 12 14 18 22 23 21 16 6
13 13 14 14 14 14 14 14 15 15 14 14 14 15 15 16 16 16 16 16 16 17 17 17 18 18 20 30 31 23 12 11 11 12 11 10 12 15 12 18 23 24 27
12 12 12 13 13 13 13 14 14 14 14 14 14 15 15 16 16 16 16 15 14 15 15 16 18 17 20 29 32 23 11 10 11 12 11 12 14 15 15 14 15 16 19
10 10 11 12 13 13 13 14 14 14 14 15 15 16 16 16 16 16 16 14 14 14 14 14 16 17 18 26 31 17 9 9 12 13 13 14 15 23 23 17 16 16 15
9 10 11 12 12 12 13 14 15 14 15 16 16 17 16 16 16 16 16 14 14 14 14 14 15 15 16 23 27 20 10 10 10 10 12 21 22 25 24 16 15 15 14
10 10 11 11 11 12 13 14 14 15 15 16 17 17 16 16 15 14 14 14 13 13 13 14 14 13 15 20 25 24 12 10 9 8 9 13 24 25 25 20 15 16 13
10 11 11 12 11 11 12 14 14 15 16 16 16 16 16 14 12 14 13 13 12 12 12 12 12 10 12 17 19 23 23 18 10 8 8 12 22 23 24 18 20 20 15
9 10 11 12 12 12 12 14 14 15 16 16 16 15 15 14 13 13 13 12 11 10 10 9 9 9 10 12 16 17 20 22 13 10 16 18 20 18 16 21 22 17 11
9 9 11 12 13 13 13 13 14 15 15 16 15 14 14 14 14 11 10 10 10 10 10 8 7 8 9 9 8 9 10 12 11 9 12 16 18 15 15 15 13 11 11
8 9 10 12 13 14 14 14 14 14 15 15 14 14 12 13 13 12 10 11 10 11 12 8 7 7 8 10 15 11 9 8 8 6 7 8 8 9 9 9 9 9 9
9 10 11 12 13 13 14 14 14 15 15 14 14 11 11 11 11 11 11 13 14 16 16 14 12 8 11 13 15 15 15 15 12 8 7 8 8 8 8 8 8 8 8
Wind_Direction
9 7 3 2 358 357 358 354 350 347 349 351 349 345 341 340 340 344 341 341 339 339 338 336 334 334 331 328 327 329 321 316 314 302 285 263 250 246 246 247 247 239 234
1 359 357 360 357 355 356 352 350 346 347 350 347 341 333 336 340 340 338 337 335 335 335 335 332 332 328 328 330 330 322 317 321 316 305 277 258 242 239 240 237 238 233
355 353 355 358 356 353 353 351 350 346 347 351 347 341 337 337 341 340 338 336 330 330 330 330 331 328 328 325 325 323 320 317 312 300 293 293 279 280 246 236 238 234 231
354 354 354 355 352 349 348 349 348 346 348 348 347 345 341 340 337 335 332 332 329 330 327 327 328 325 324 320 317 315 309 306 303 304 286 288 305 299 282 246 228 233 234
353 352 351 350 348 348 346 348 347 348 348 347 346 343 340 337 333 334 333 333 332 333 327 328 328 326 323 319 313 308 302 296 291 289 291 291 287 273 274 271 262 238 229
348 346 345 347 348 348 346 349 349 350 350 348 347 343 339 338 336 338 337 335 332 331 329 329 328 325 321 318 312 306 300 291 284 280 277 276 275 276 274 268 262 260 247
343 345 346 348 348 348 347 350 349 348 348 347 346 341 340 337 336 337 334 333 330 328 327 327 324 321 318 315 310 309 304 294 284 277 273 268 266 273 275 276 270 263 258
345 346 347 347 346 347 346 347 346 344 344 344 343 339 340 336 333 333 331 329 326 324 323 324 320 319 317 316 311 311 312 302 291 278 272 268 266 265 265 264 268 263 253
346 345 345 346 346 347 347 345 343 341 341 341 340 338 339 337 333 331 329 327 325 323 324 322 322 320 318 317 315 311 316 313 301 284 269 262 261 258 258 255 251 256 255
349 346 347 347 347 347 345 345 343 340 338 339 338 336 337 336 333 330 330 329 326 325 324 325 325 321 320 322 317 314 316 318 310 296 273 260 257 254 251 248 243 238 249
349 347 347 349 347 346 345 344 342 341 340 340 338 337 337 337 334 333 331 329 326 326 327 327 326 325 326 328 320 316 322 324 320 314 294 268 263 262 261 254 243 233 229
345 346 347 347 346 345 344 343 341 340 339 338 337 337 338 338 338 336 333 331 329 329 329 329 327 328 330 329 324 318 329 331 330 329 325 313 301 298 300 289 264 243 228
343 346 348 346 344 342 341 339 338 338 337 338 337 338 340 340 339 337 334 334 333 332 333 333 330 329 330 327 326 319 332 336 335 337 339 339 338 325 310 306 289 260 236
344 347 345 343 341 339 337 336 337 336 336 336 338 339 339 338 337 336 334 336 336 335 335 334 333 331 330 327 326 325 337 342 341 342 345 348 351 339 310 300 299 273 236
345 346 342 339 338 337 336 335 334 334 334 334 336 336 335 333 333 333 335 336 337 337 336 337 336 336 334 330 333 333 347 348 346 348 349 351 3 0 4 358 328 299 260
342 342 339 337 336 335 333 331 328 330 329 330 330 330 331 332 331 330 335 337 336 336 337 337 337 339 338 335 343 352 352 353 353 353 354 355 7 10 18 34 37 31 19
339 339 336 333 331 328 327 324 325 324 324 325 325 325 326 329 328 328 331 335 333 334 335 335 337 339 337 338 344 350 351 359 2 359 1 10 13 23 22 32 37 32 34
334 333 331 327 324 322 321 320 321 320 321 321 321 322 324 322 322 326 326 330 333 330 329 332 336 338 339 340 342 344 355 6 8 6 15 26 24 29 31 36 42 39 34
329 327 326 322 320 322 323 321 320 322 322 321 321 321 320 320 320 321 320 328 331 328 327 331 335 340 341 343 344 5 10 11 10 15 31 40 38 36 36 34 37 37 29
330 328 324 323 324 326 325 321 322 325 327 325 321 319 319 321 322 320 322 325 326 328 328 329 334 341 344 347 352 16 12 14 9 14 35 45 46 40 40 37 36 36 28
332 330 327 326 328 327 324 322 324 328 328 323 319 319 323 325 323 323 323 322 322 324 327 330 334 343 349 351 358 15 12 10 12 18 32 44 49 47 43 41 38 39 36
334 334 329 326 327 328 327 323 326 328 325 321 321 324 327 326 324 325 325 324 324 323 325 329 335 345 349 355 360 15 22 22 20 32 37 44 48 48 47 44 39 38 37
332 333 327 322 327 335 331 323 326 327 324 323 326 327 326 325 327 329 329 329 328 324 322 318 326 342 346 351 5 24 31 31 33 41 55 52 49 46 44 43 41 37 33
333 333 327 326 331 334 331 326 327 328 325 326 328 328 328 328 331 334 334 331 328 325 327 338 344 343 344 355 14 25 29 35 41 35 39 45 48 48 45 42 39 37 37
334 332 329 327 328 331 330 331 334 332 329 329 330 329 328 329 333 337 337 338 340 346 355 352 344 345 347 11 32 36 34 37 48 47 42 39 36 37 38 41 40 37 35
332 329 329 329 329 329 329 334 337 335 333 332 334 331 330 335 339 340 342 350 352 354 2 0 358 353 360 28 42 43 44 44 45 48 44 40 35 33 30 31 34 35 34